User: anonymous   Login
Location: Allos
(44.2333°N, 6.6333°E)
Time: 06:13:46
(UTC+00:00)
Language:

DIWATA 2B (PO-101) - Orbit

View from above orbital plane
View from above orbital plane
View from above satellite
View from above satellite

Ground track
Ground track

The orbit data is extracted from the following two-line orbital elements,

1 43678U 18084H   21130.75645524 -.00000267  00000-0 -20720-4 0  9996
2 43678  97.9170 255.8540 0010047 167.5948 192.5523 14.91738049137817
Epoch (UTC): 10 May 2021 18:09:17
Eccentricity: 0.0010047
inclination: 97.9170°
perigee height: 585 km
apogee height: 599 km
right ascension of ascending node: 255.8540°
argument of perigee: 167.5948°
revolutions per day: 14.91738049
mean anomaly at epoch: 192.5523°
orbit number at epoch: 13781

The dashed part of the orbit path shows where the satellite is in the earth's shadow,  

DLR